DLH595A DNPO-DNAA

Flight info

Callsign DLH595A
Flight time 0h 45m
Altitude 23000
Route ETVUN H206 APVOT UH206 ENG UJ707 ULSIX J707 AMTIR UJ707 NANUV NANUV1N
Aircraft A346/H-SDE2E3FGHIJ3J4J5M1P2RWXYZ/LB1D1

Departure

Time 2026-04-24 15:29
Airport Port Harcourt International Airport (DNPO)

Arrival

Time 2026-04-24 16:15
Airport Nnamdi Azikiwe International Airport (DNAA)
Time Latitude Longitude Altitude Speed Heading
2026-04-24 14:59 5.01535 6.95303 87 ft 0 kts 117°
2026-04-24 15:18 5.01540 6.95294 89 ft 4 kts 116°
2026-04-24 15:19 5.01552 6.95270 88 ft 4 kts 118°
2026-04-24 15:19 5.01566 6.95247 89 ft 4 kts 125°
2026-04-24 15:19 5.01582 6.95226 87 ft 4 kts 130°
2026-04-24 15:19 5.01600 6.95205 90 ft 4 kts 134°
2026-04-24 15:20 5.01614 6.95192 88 ft 0 kts 135°
2026-04-24 15:22 5.01609 6.95196 86 ft 2 kts 142°
2026-04-24 15:23 5.01554 6.95187 95 ft 8 kts 208°
2026-04-24 15:23 5.01401 6.95106 89 ft 18 kts 207°
2026-04-24 15:23 5.01280 6.95042 88 ft 21 kts 207°
2026-04-24 15:24 5.00992 6.94889 85 ft 16 kts 208°
2026-04-24 15:25 5.00799 6.94785 84 ft 14 kts 208°
2026-04-24 15:25 5.00607 6.94682 91 ft 17 kts 208°
2026-04-24 15:26 5.00319 6.94527 89 ft 8 kts 213°
2026-04-24 15:27 5.00340 6.94371 91 ft 11 kts 300°
2026-04-24 15:27 5.00407 6.94344 87 ft 2 kts 28°
2026-04-24 15:28 5.02118 6.95257 198 ft 185 kts 29°
2026-04-24 15:29 5.04464 6.96539 1687 ft 195 kts 30°
2026-04-24 15:30 5.08479 6.98346 3298 ft 236 kts 23°
2026-04-24 15:31 5.15338 7.01301 5980 ft 285 kts 25°
2026-04-24 15:32 5.22590 7.04476 9734 ft 287 kts 25°
2026-04-24 15:33 5.30550 7.07977 11838 ft 347 kts 25°
2026-04-24 15:33 5.37381 7.10969 14113 ft 362 kts 24°
2026-04-24 15:34 5.42065 7.13022 15505 ft 371 kts 24°
2026-04-24 15:35 5.49272 7.16181 17601 ft 384 kts 23°
2026-04-24 15:35 5.54211 7.18344 18825 ft 392 kts 23°
2026-04-24 15:35 5.56731 7.19446 19391 ft 397 kts 24°
2026-04-24 15:36 5.59279 7.20561 19922 ft 402 kts 24°
2026-04-24 15:36 5.64495 7.22847 20984 ft 412 kts 24°
2026-04-24 15:36 5.67113 7.23996 21498 ft 417 kts 24°
2026-04-24 15:37 5.69805 7.25177 21999 ft 423 kts 24°
2026-04-24 15:37 5.72524 7.26369 22475 ft 428 kts 24°
2026-04-24 15:37 5.75275 7.27573 22777 ft 433 kts 25°
2026-04-24 15:37 5.78043 7.28788 22785 ft 433 kts 24°
2026-04-24 15:38 5.80781 7.29996 22788 ft 433 kts 25°
2026-04-24 15:38 5.83546 7.31241 22789 ft 433 kts 25°
2026-04-24 15:38 5.86302 7.32492 22789 ft 433 kts 25°
2026-04-24 15:38 5.89023 7.33727 22786 ft 433 kts 25°
2026-04-24 15:39 5.91779 7.34976 22787 ft 433 kts 25°
2026-04-24 15:39 5.94505 7.36209 22789 ft 434 kts 25°
2026-04-24 15:39 5.97262 7.37458 22787 ft 433 kts 25°
2026-04-24 15:39 6.00006 7.38699 22790 ft 434 kts 25°
2026-04-24 15:40 6.02772 7.39952 22787 ft 433 kts 25°
2026-04-24 15:40 6.05497 7.41182 22780 ft 434 kts 25°
2026-04-24 15:40 6.08266 7.42418 22782 ft 435 kts 24°
2026-04-24 15:40 6.11040 7.43649 22782 ft 436 kts 24°
2026-04-24 15:41 6.13812 7.44880 22779 ft 435 kts 24°
2026-04-24 15:41 6.16593 7.46115 22783 ft 436 kts 24°
2026-04-24 15:41 6.19375 7.47353 22781 ft 435 kts 24°
2026-04-24 15:41 6.22110 7.48569 22780 ft 436 kts 24°
2026-04-24 15:42 6.24883 7.49804 22781 ft 435 kts 24°
2026-04-24 15:42 6.27660 7.51038 22779 ft 436 kts 24°
2026-04-24 15:42 6.30435 7.52274 22781 ft 435 kts 24°
2026-04-24 15:42 6.33213 7.53510 22780 ft 436 kts 24°
2026-04-24 15:43 6.35958 7.54732 22774 ft 435 kts 24°
2026-04-24 15:43 6.38741 7.55969 22775 ft 436 kts 24°
2026-04-24 15:43 6.41520 7.57208 22775 ft 435 kts 24°
2026-04-24 15:43 6.44301 7.58444 22779 ft 437 kts 24°
2026-04-24 15:44 6.47137 7.59455 22775 ft 438 kts 15°
2026-04-24 15:44 6.50136 7.60034 22768 ft 439 kts
2026-04-24 15:44 6.53191 7.60181 22775 ft 440 kts
2026-04-24 15:44 6.56247 7.60172 22772 ft 439 kts 359°
2026-04-24 15:45 6.59315 7.60135 22778 ft 440 kts 359°
2026-04-24 15:45 6.62381 7.60101 22777 ft 438 kts 359°
2026-04-24 15:45 6.65393 7.60074 22772 ft 439 kts 359°
2026-04-24 15:45 6.68470 7.60054 22772 ft 439 kts 359°
2026-04-24 15:46 6.71527 7.60037 22774 ft 438 kts 360°
2026-04-24 15:46 6.74552 7.60023 22770 ft 440 kts 360°
2026-04-24 15:46 6.77626 7.60010 22771 ft 439 kts 360°
2026-04-24 15:46 6.80680 7.59998 22765 ft 439 kts 360°
2026-04-24 15:47 6.83747 7.59986 22769 ft 440 kts 360°
2026-04-24 15:47 6.86776 7.59973 22769 ft 438 kts 360°
2026-04-24 15:47 6.89828 7.59961 22766 ft 439 kts 360°
2026-04-24 15:47 6.92897 7.59948 22769 ft 439 kts 360°
2026-04-24 15:48 6.95950 7.59936 22761 ft 438 kts 360°
2026-04-24 15:48 6.98979 7.59924 22766 ft 440 kts 360°
2026-04-24 15:48 7.02043 7.59911 22763 ft 439 kts 360°
2026-04-24 15:48 7.05103 7.59896 22762 ft 439 kts 359°
2026-04-24 15:49 7.08167 7.59881 22766 ft 440 kts 359°
2026-04-24 15:49 7.11196 7.59866 22764 ft 438 kts 359°
2026-04-24 15:49 7.14260 7.59851 22765 ft 439 kts 359°
2026-04-24 15:49 7.17317 7.59836 22770 ft 439 kts 359°
2026-04-24 15:50 7.20383 7.59821 22765 ft 438 kts 360°
2026-04-24 15:50 7.23441 7.59806 22765 ft 439 kts 359°
2026-04-24 15:50 7.26463 7.59791 22764 ft 438 kts 359°
2026-04-24 15:50 7.29520 7.59776 22764 ft 439 kts 359°
2026-04-24 15:51 7.32587 7.59760 22767 ft 439 kts 359°
2026-04-24 15:51 7.35642 7.59745 22762 ft 438 kts 359°
2026-04-24 15:51 7.38695 7.59730 22763 ft 439 kts 359°
2026-04-24 15:51 7.41749 7.59714 22766 ft 438 kts 359°
2026-04-24 15:52 7.44799 7.59699 22761 ft 438 kts 359°
2026-04-24 15:52 7.47860 7.59684 22764 ft 439 kts 359°
2026-04-24 15:52 7.50870 7.59669 22765 ft 438 kts 360°
2026-04-24 15:52 7.53937 7.59660 22759 ft 440 kts 359°
2026-04-24 15:53 7.57013 7.59652 22760 ft 439 kts 360°
2026-04-24 15:53 7.60073 7.59643 22756 ft 439 kts 359°
2026-04-24 15:53 7.63098 7.59635 22761 ft 440 kts 359°
2026-04-24 15:53 7.66175 7.59626 22757 ft 439 kts 359°
2026-04-24 15:54 7.69203 7.59618 22747 ft 440 kts 359°
2026-04-24 15:54 7.72271 7.59609 22751 ft 440 kts 359°
2026-04-24 15:54 7.75345 7.59599 22752 ft 440 kts 359°
2026-04-24 15:54 7.78417 7.59591 22751 ft 441 kts 359°
2026-04-24 15:55 7.81451 7.59581 22751 ft 439 kts 359°
2026-04-24 15:55 7.84508 7.59572 22740 ft 439 kts 359°
2026-04-24 15:55 7.87583 7.59564 22741 ft 440 kts 359°
2026-04-24 15:55 7.90649 7.59555 22661 ft 439 kts 359°
2026-04-24 15:56 7.93656 7.59550 22318 ft 436 kts 359°
2026-04-24 15:56 7.96685 7.59541 21937 ft 433 kts 359°
2026-04-24 15:56 7.99685 7.59532 21509 ft 430 kts 359°
2026-04-24 15:56 8.02697 7.59522 21066 ft 426 kts 359°
2026-04-24 15:57 8.05620 7.59512 20650 ft 422 kts 359°
2026-04-24 15:57 8.08550 7.59504 20228 ft 419 kts 359°
2026-04-24 15:57 8.10509 7.59493 19953 ft 416 kts 359°
2026-04-24 15:57 8.14325 7.59470 19405 ft 411 kts 359°
2026-04-24 15:58 8.17169 7.59453 19025 ft 406 kts 359°
2026-04-24 15:58 8.19989 7.59435 18650 ft 402 kts 359°
2026-04-24 15:58 8.22782 7.59414 18242 ft 399 kts 358°
2026-04-24 15:58 8.25530 7.59195 17844 ft 394 kts 352°
2026-04-24 15:59 8.28183 7.58679 17391 ft 391 kts 346°
2026-04-24 15:59 8.30802 7.57928 16938 ft 387 kts 343°
2026-04-24 15:59 8.33341 7.57145 16523 ft 383 kts 343°
2026-04-24 15:59 8.35879 7.56355 16112 ft 379 kts 343°
2026-04-24 16:00 8.38396 7.55573 15698 ft 376 kts 343°
2026-04-24 16:00 8.40898 7.54798 15290 ft 373 kts 343°
2026-04-24 16:00 8.43334 7.54045 14892 ft 370 kts 343°
2026-04-24 16:00 8.45797 7.53287 14476 ft 367 kts 343°
2026-04-24 16:01 8.48231 7.52538 14067 ft 364 kts 343°
2026-04-24 16:01 8.50647 7.51794 13663 ft 361 kts 344°
2026-04-24 16:01 8.53019 7.51065 13223 ft 358 kts 344°
2026-04-24 16:01 8.55397 7.50333 12795 ft 355 kts 344°
2026-04-24 16:02 8.57754 7.49610 12386 ft 352 kts 344°
2026-04-24 16:02 8.60086 7.48893 11988 ft 348 kts 344°
2026-04-24 16:02 8.62401 7.48181 11593 ft 346 kts 345°
2026-04-24 16:02 8.64705 7.47473 11187 ft 343 kts 345°
2026-04-24 16:03 8.66953 7.46784 10801 ft 340 kts 345°
2026-04-24 16:03 8.69217 7.46086 10417 ft 338 kts 345°
2026-04-24 16:03 8.71458 7.45396 10164 ft 329 kts 345°
2026-04-24 16:03 8.73582 7.44741 10100 ft 316 kts 345°
2026-04-24 16:04 8.75650 7.44104 9998 ft 304 kts 345°
2026-04-24 16:04 8.77636 7.43492 9889 ft 292 kts 345°
2026-04-24 16:04 8.79520 7.42912 9806 ft 281 kts 345°
2026-04-24 16:04 8.81379 7.42339 9636 ft 278 kts 346°
2026-04-24 16:05 8.85086 7.41203 8952 ft 276 kts 345°
2026-04-24 16:05 8.86896 7.40646 8649 ft 274 kts 345°
2026-04-24 16:06 8.90528 7.39526 8076 ft 271 kts 345°
2026-04-24 16:06 8.92347 7.38997 7771 ft 270 kts 349°
2026-04-24 16:06 8.96076 7.38654 7150 ft 269 kts
2026-04-24 16:07 8.97924 7.38652 6885 ft 268 kts
2026-04-24 16:07 8.99791 7.38658 6584 ft 268 kts
2026-04-24 16:07 9.03516 7.38896 5964 ft 270 kts 18°
2026-04-24 16:08 9.05196 7.39745 5654 ft 270 kts 33°
2026-04-24 16:08 9.08244 7.41927 5069 ft 269 kts 36°
2026-04-24 16:09 9.11415 7.44043 4801 ft 265 kts 16°
2026-04-24 16:09 9.13168 7.44083 4750 ft 246 kts 338°
2026-04-24 16:09 9.14136 7.43524 4638 ft 239 kts 313°
2026-04-24 16:09 9.15388 7.41745 4370 ft 233 kts 299°
2026-04-24 16:10 9.16424 7.37560 3732 ft 205 kts 232°
2026-04-24 16:11 9.14200 7.35805 3371 ft 198 kts 212°
2026-04-24 16:11 9.13092 7.35100 3409 ft 177 kts 214°
2026-04-24 16:11 9.12423 7.34649 3427 ft 172 kts 214°
2026-04-24 16:12 9.10249 7.33123 2982 ft 159 kts 216°
2026-04-24 16:12 9.09650 7.32696 2831 ft 159 kts 216°
2026-04-24 16:12 9.07848 7.31412 2472 ft 159 kts 216°
2026-04-24 16:13 9.06949 7.30771 2272 ft 158 kts 214°
2026-04-24 16:13 9.05160 7.29497 1918 ft 157 kts 215°
2026-04-24 16:14 9.03373 7.28229 1479 ft 156 kts 216°
2026-04-24 16:14 9.02509 7.27608 1282 ft 152 kts 216°
2026-04-24 16:14 9.01073 7.26594 1133 ft 72 kts 214°
2026-04-24 16:15 9.00872 7.26452 1112 ft 33 kts 215°
2026-04-24 16:15 9.00709 7.26374 1118 ft 8 kts 154°
2026-04-24 16:16 9.00675 7.26410 1115 ft 2 kts 125°
2026-04-24 16:16 9.00660 7.26432 1117 ft 5 kts 125°
2026-04-24 16:17 9.00677 7.26520 1121 ft 2 kts 35°
2026-04-24 16:17 9.00722 7.26552 1120 ft 6 kts 35°
2026-04-24 16:18 9.00791 7.26616 1136 ft 4 kts 81°
2026-04-24 16:18 9.00791 7.26666 1134 ft 5 kts 99°
2026-04-24 16:18 9.00766 7.26693 1136 ft 6 kts 162°
2026-04-24 16:19 9.00714 7.26695 1136 ft 0 kts 179°